Location: Moscow
(55.7500°N, 37.5830°E)
Time: 11:01:14
(UTC+03:00)

Explorer 7 - Pass Details

Date: 05 December 2021
Orbit: 483 x 674 km, 50.3° (Epoch: 19 January)

Event Time Altitude Azimuth Distance (km) Brightness Sun altitude
Rises 11:41:40 0° 271° (W) 2,641 10.2 11.4°
Reaches altitude 10° 11:45:22 10° 236° (SW) 1,710 9.8 11.5°
Maximum altitude 11:46:32 11° 218° (SW) 1,626 10.0 11.5°
Drops below altitude 10° 11:47:41 10° 200° (SSW) 1,688 10.6 11.5°
Sets 11:51:15 0° 164° (SSE) 2,543 12.2 11.6°
